TimeHST,TemperatureF,Dew PointF,Humidity,Sea Level PressureIn,VisibilityMPH,Wind Direction,Wind SpeedMPH,Gust SpeedMPH,PrecipitationIn,Events,Conditions,WindDirDegrees,DateUTC
12:40 AM,68.0,57.2,68,30.12,9.0,Calm,Calm,-,N/A,Rain,Light Rain,0,2013-02-19 10:40:00
12:55 AM,66.6,58.3,75,30.12,10.0,Variable,3.5,-,0.01,,Light Drizzle,0,2013-02-19 10:55:00
1:10 AM,66.2,59.0,78,30.12,10.0,West,3.5,-,N/A,,Mostly Cloudy,280,2013-02-19 11:10:00
1:15 AM,66.2,59.0,78,30.12,10.0,NNE,3.5,-,N/A,,Light Drizzle,20,2013-02-19 11:15:00
1:26 AM,66.2,59.0,78,30.12,10.0,East,8.1,-,N/A,,Mostly Cloudy,90,2013-02-19 11:26:00
1:29 AM,66.2,59.0,78,30.13,10.0,SE,6.9,-,N/A,,Light Drizzle,140,2013-02-19 11:29:00
1:46 AM,64.4,59.0,83,30.12,10.0,Calm,Calm,-,N/A,,Mostly Cloudy,0,2013-02-19 11:46:00
1:55 AM,64.0,59.9,86,30.12,10.0,Calm,Calm,-,0.01,,Mostly Cloudy,0,2013-02-19 11:55:00
2:00 AM,64.4,60.8,88,30.12,10.0,Calm,Calm,-,N/A,Rain,Light Rain,0,2013-02-19 12:00:00
2:35 AM,64.4,60.8,88,30.11,10.0,NE,5.8,-,N/A,,Scattered Clouds,40,2013-02-19 12:35:00
2:39 AM,64.4,60.8,88,30.11,10.0,NE,9.2,-,N/A,Rain,Light Rain,40,2013-02-19 12:39:00
2:52 AM,64.4,60.8,88,30.10,10.0,ENE,9.2,-,N/A,,Partly Cloudy,70,2013-02-19 12:52:00
2:55 AM,64.9,60.4,85,30.10,10.0,ENE,8.1,-,0.01,,Partly Cloudy,70,2013-02-19 12:55:00
3:20 AM,64.4,60.8,88,30.10,10.0,Calm,Calm,-,N/A,,Light Drizzle,0,2013-02-19 13:20:00
3:35 AM,64.4,60.8,88,30.10,10.0,East,4.6,-,N/A,,Scattered Clouds,90,2013-02-19 13:35:00
3:42 AM,64.4,60.8,88,30.11,10.0,Calm,Calm,-,N/A,,Light Drizzle,0,2013-02-19 13:42:00
3:55 AM,64.6,59.9,85,30.10,10.0,Calm,Calm,-,0.00,,Light Drizzle,0,2013-02-19 13:55:00
3:58 AM,64.4,59.0,83,30.10,10.0,Variable,3.5,-,N/A,,Scattered Clouds,0,2013-02-19 13:58:00
4:55 AM,65.7,58.1,77,30.10,10.0,Variable,3.5,-,0.00,,Overcast,0,2013-02-19 14:55:00
5:02 AM,66.2,59.0,78,30.10,10.0,NE,6.9,-,N/A,,Drizzle,40,2013-02-19 15:02:00
5:11 AM,66.2,59.0,78,30.10,10.0,NE,8.1,-,N/A,,Mostly Cloudy,50,2013-02-19 15:11:00
5:55 AM,65.7,56.5,72,30.10,10.0,NNE,6.9,-,0.00,,Overcast,30,2013-02-19 15:55:00
6:55 AM,65.1,55.4,71,30.12,10.0,Variable,6.9,-,N/A,,Mostly Cloudy,0,2013-02-19 16:55:00
7:55 AM,66.4,56.7,71,30.14,10.0,NE,5.8,-,N/A,,Mostly Cloudy,50,2013-02-19 17:55:00
8:48 AM,68.0,57.2,68,30.14,10.0,ENE,10.4,17.3,N/A,Rain,Light Rain,70,2013-02-19 18:48:00
8:55 AM,67.1,57.4,71,30.14,10.0,NE,12.7,-,0.00,,Light Drizzle,50,2013-02-19 18:55:00
8:58 AM,66.2,57.2,73,30.15,10.0,ENE,6.9,-,N/A,,Overcast,60,2013-02-19 18:58:00
9:55 AM,69.6,57.4,65,30.15,10.0,ENE,11.5,-,0.00,,Scattered Clouds,60,2013-02-19 19:55:00
10:55 AM,69.6,56.8,64,30.14,10.0,ENE,10.4,19.6,N/A,,Mostly Cloudy,70,2013-02-19 20:55:00
11:55 AM,69.6,59.5,70,30.12,6.0,ENE,16.1,26.5,N/A,,Haze,60,2013-02-19 21:55:00
12:01 PM,68.0,59.0,73,30.12,6.0,ENE,11.5,-,N/A,,Light Drizzle,70,2013-02-19 22:01:00
12:16 PM,68.0,60.8,78,30.10,10.0,East,11.5,-,N/A,,Mostly Cloudy,90,2013-02-19 22:16:00
12:37 PM,68.0,60.8,78,30.10,7.0,East,11.5,-,N/A,Rain,Light Rain,90,2013-02-19 22:37:00
12:55 PM,67.1,60.8,80,30.09,8.0,East,12.7,-,0.01,,Light Drizzle,100,2013-02-19 22:55:00
2:55 PM,66.9,61.0,81,30.06,10.0,Variable,5.8,-,0.03,,Light Drizzle,0,2013-02-20 00:55:00
3:00 PM,68.0,60.8,78,30.06,10.0,East,5.8,-,N/A,,Mostly Cloudy,80,2013-02-20 01:00:00
3:01 PM,68.0,60.8,78,30.06,10.0,ENE,8.1,-,N/A,,Light Drizzle,70,2013-02-20 01:01:00
3:12 PM,68.0,60.8,78,30.06,10.0,ENE,8.1,-,N/A,,Mostly Cloudy,60,2013-02-20 01:12:00
3:22 PM,68.0,59.0,73,30.06,10.0,East,8.1,-,N/A,,Light Drizzle,80,2013-02-20 01:22:00
3:55 PM,68.2,58.3,71,30.06,10.0,Calm,Calm,-,0.01,,Light Drizzle,0,2013-02-20 01:55:00
4:08 PM,68.0,57.2,68,30.06,10.0,ENE,5.8,-,N/A,,Overcast,60,2013-02-20 02:08:00
4:41 PM,69.8,59.0,68,30.05,10.0,NE,6.9,-,N/A,,Light Drizzle,40,2013-02-20 02:41:00
4:53 PM,68.0,60.8,78,30.06,10.0,NNE,8.1,-,N/A,,Mostly Cloudy,30,2013-02-20 02:53:00
4:55 PM,68.7,60.8,76,30.05,10.0,Variable,6.9,-,0.00,,Mostly Cloudy,0,2013-02-20 02:55:00
5:22 PM,68.0,59.0,73,30.06,10.0,ENE,15.0,-,N/A,Rain,Light Rain,60,2013-02-20 03:22:00
5:32 PM,68.0,59.0,73,30.06,10.0,ENE,10.4,20.7,N/A,,Mostly Cloudy,70,2013-02-20 03:32:00
5:55 PM,68.0,58.1,71,30.06,10.0,ENE,8.1,-,0.00,,Mostly Cloudy,60,2013-02-20 03:55:00
6:15 PM,68.0,59.0,73,30.06,10.0,NE,6.9,-,N/A,,Light Drizzle,50,2013-02-20 04:15:00
6:55 PM,66.9,58.3,74,30.08,10.0,NE,13.8,17.3,0.00,Rain,Light Rain,50,2013-02-20 04:55:00
7:18 PM,66.2,59.0,78,30.08,10.0,NNE,8.1,-,N/A,,Light Drizzle,30,2013-02-20 05:18:00
7:55 PM,65.5,58.8,79,30.10,10.0,NE,9.2,-,0.03,Rain,Light Rain,50,2013-02-20 05:55:00
8:41 PM,64.4,59.0,83,30.11,10.0,NE,8.1,-,N/A,,Partly Cloudy,40,2013-02-20 06:41:00
8:51 PM,66.2,59.0,78,30.10,10.0,NE,9.2,-,N/A,Rain,Light Rain,40,2013-02-20 06:51:00
8:55 PM,65.3,59.0,80,30.10,10.0,NE,10.4,-,0.04,Rain,Light Rain,40,2013-02-20 06:55:00
9:30 PM,64.4,59.0,83,30.11,10.0,NE,12.7,-,N/A,,Partly Cloudy,40,2013-02-20 07:30:00
9:43 PM,64.4,60.8,88,30.11,9.0,NE,12.7,-,N/A,Rain,Light Rain,40,2013-02-20 07:43:00
9:55 PM,64.2,60.1,86,30.11,6.0,NE,16.1,23.0,0.04,Rain,Light Rain,40,2013-02-20 07:55:00
10:55 PM,64.4,60.6,88,30.10,10.0,NE,15.0,-,0.03,,Light Drizzle,40,2013-02-20 08:55:00
11:47 PM,64.4,60.8,88,30.10,7.0,ENE,6.9,-,N/A,Rain,Light Rain,70,2013-02-20 09:47:00
11:48 PM,64.4,60.8,88,30.10,7.0,ENE,5.8,-,N/A,Rain,Light Rain,70,2013-02-20 09:48:00
11:55 PM,64.0,60.8,89,30.10,10.0,Variable,3.5,-,0.02,,Light Drizzle,0,2013-02-20 09:55:00
11:56 PM,64.4,60.8,88,30.10,10.0,NE,4.6,-,N/A,,Scattered Clouds,50,2013-02-20 09:56:00